Location: Bailleul
(50.3375°N, 2.8513°E)
Time: 04:40:48
(UTC+00:00)

KORONAS-FOTON - Visible Passes

Search period start: 26 October 2021 00:00
Search period end: 05 November 2021 00:00
Orbit: 504 x 530 km, 82.4° (Epoch: 25 October)

Date Brightness Start Highest point End Pass type
(mag) Time Alt. Az. Time Alt. Az. Time Alt. Az.
26 Oct 7.1 02:45:46 11° ENE 02:45:46 11° ENE 02:46:19 10° NE visible
26 Oct 4.4 04:20:51 41° NNW 04:20:51 41° NNW 04:23:35 10° N visible
27 Oct 5.3 04:07:14 27° N 04:07:14 27° N 04:09:05 10° N visible
28 Oct 6.0 03:53:30 18° N 03:53:30 18° N 03:54:35 10° N visible
29 Oct 6.5 03:39:39 13° NNE 03:39:39 13° NNE 03:40:03 10° NNE visible
